DW0538 Weather Reports


time (UTC)temp
C
wind
direction
speed
KPH
gust
KPH
rain 1hr
cm
rain 24hr
cm
rain mn
cm
humidity
%
barometer
mb
20260505194832 28 222 4.8 24.1 0.00 0.00 0.00 32 1006.9
20260505194317 28 319 6.4 24.1 0.00 0.00 0.00 32 1007.0
20260505193312 28 245 1.6 19.3 0.00 0.00 0.00 35 1007.0
20260505192320 28 248 1.6 19.3 0.00 0.00 0.00 34 1007.1
20260505191316 28 241 4.8 22.5 0.00 0.00 0.00 35 1007.2
20260505190827 28 249 0.0 17.7 0.00 0.00 0.00 35 1007.2
20260505190327 28 259 3.2 22.5 0.00 0.00 0.00 33 1007.5
20260505185825 28 200 4.8 22.5 0.00 0.00 0.00 33 1007.5
20260505184808 28 324 4.8 29.0 0.00 0.00 0.00 33 1007.6
20260505182814 28 202 1.6 17.7 0.00 0.00 0.00 35 1008.0
20260505181318 28 230 3.2 24.1 0.00 0.00 0.00 38 1008.0
20260505180812 28 272 8.0 24.1 0.00 0.00 0.00 38 1008.1
20260505180322 28 213 1.6 17.7 0.00 0.00 0.00 38 1008.1
20260505175828 27 244 3.2 17.7 0.00 0.00 0.00 39 1008.0
20260505174815 27 257 6.4 20.9 0.00 0.00 0.00 38 1008.2
20260505174326 27 350 0.0 16.1 0.00 0.00 0.00 39 1008.2
20260505173313 27 280 1.6 16.1 0.00 0.00 0.00 42 1008.4
20260505172820 27 338 0.0 17.7 0.00 0.00 0.00 42 1008.4
20260505171810 27 238 0.0 9.7 0.00 0.00 0.00 43 1008.6
20260505171324 27 229 1.6 9.7 0.00 0.00 0.00 42 1008.7
20260505170813 26 302 1.6 11.3 0.00 0.00 0.00 44 1008.8
20260505170329 26 206 1.6 11.3 0.00 0.00 0.00 44 1008.8
20260505165810 26 309 0.0 12.9 0.00 0.00 0.00 45 1008.8
20260505165323 26 326 0.0 12.9 0.00 0.00 0.00 45 1008.7
20260505164808 26 231 0.0 0.0 0.00 0.00 0.00 44 1008.9
20260505164330 26 227 4.8 12.9 0.00 0.00 0.00 44 1008.9
20260505163817 26 227 0.0 6.4 0.00 0.00 0.00 46 1008.9
20260505163328 25 167 0.0 0.0 0.00 0.00 0.00 47 1008.9
20260505162819 25 229 0.0 12.9 0.00 0.00 0.00 47 1009.2
20260505162308 25 218 0.0 12.9 0.00 0.00 0.00 46 1009.3
20260505161816 25 288 0.0 6.4 0.00 0.00 0.00 48 1009.3
20260505153333 23 269 0.0 4.8 0.00 0.00 0.00 54 1009.9
20260505152819 23 265 0.0 16.1 0.00 0.00 0.00 52 1010.0
20260505152311 23 288 1.6 16.1 0.00 0.00 0.00 53 1010.0
20260505151312 23 205 0.0 4.8 0.00 0.00 0.00 54 1010.2
20260505150825 22 260 0.0 3.2 0.00 0.00 0.00 54 1010.1
20260505124813 17 292 0.0 3.2 0.00 0.00 0.00 74 1010.4
20260505124309 16 261 0.0 1.6 0.00 0.00 0.00 74 1010.2
20260505123819 16 292 0.0 0.0 0.00 0.00 0.00 76 1010.2
20260505123309 16 180 0.0 1.6 0.00 0.00 0.00 78 1010.1
20260505122823 15 200 0.0 1.6 0.00 0.00 0.00 79 1010.1
20260505122327 15 284 0.0 0.0 0.00 0.00 0.00 81 1010.1
20260505121834 15 284 0.0 0.0 0.00 0.00 0.00 81 1010.2
20260505121325 15 284 0.0 0.0 0.00 0.00 0.00 82 1010.3
20260505120811 14 284 0.0 0.0 0.00 0.00 0.00 83 1010.4
20260505120332 14 285 0.0 0.0 0.00 0.00 0.00 83 1010.6
20260505115819 14 302 0.0 0.0 0.00 0.00 0.00 84 1010.5
20260505114816 13 219 0.0 0.0 0.00 0.00 0.00 86 1010.5
20260505113829 13 211 0.0 0.0 0.00 0.00 0.00 87 1010.6
20260505113314 13 211 0.0 0.0 0.00 0.00 0.00 87 1010.6
20260505111809 12 210 0.0 3.2 0.00 0.00 0.00 88 1010.5
20260505111317 12 192 0.0 3.2 0.00 0.00 0.00 89 1010.4
20260505110825 12 173 0.0 0.0 0.00 0.00 0.00 89 1010.4
20260505110312 12 164 0.0 0.0 0.00 0.00 0.00 89 1010.3
20260505101816 10 231 0.0 0.0 0.00 0.00 0.00 87 1010.5
20260505101311 10 231 0.0 0.0 0.00 0.00 0.00 87 1010.4
20260505100829 10 231 0.0 0.0 0.00 0.00 0.00 86 1010.3
20260505095835 9 231 0.0 0.0 0.00 0.00 0.00 86 1010.1
20260505095312 10 231 0.0 0.0 0.00 0.00 0.00 85 1010.0
20260505094820 10 231 0.0 0.0 0.00 0.00 0.00 83 1010.0
20260505093823 11 230 0.0 0.0 0.00 0.00 0.00 81 1009.7
20260505093309 11 230 0.0 0.0 0.00 0.00 0.00 79 1009.7
20260505092816 12 230 0.0 0.0 0.00 0.00 0.00 78 1009.7
20260505092335 12 230 0.0 0.0 0.00 0.00 0.00 79 1009.7
20260505091814 12 230 0.0 0.0 0.00 0.00 0.00 80 1009.6
20260505090812 12 230 0.0 0.0 0.00 0.00 0.00 81 1009.6
20260505090319 11 230 0.0 0.0 0.00 0.00 0.00 81 1009.6
20260505085826 11 230 0.0 0.0 0.00 0.00 0.00 80 1009.6
20260505085313 12 230 0.0 0.0 0.00 0.00 0.00 79 1009.5
20260505084819 12 230 0.0 0.0 0.00 0.00 0.00 78 1009.4
20260505084309 12 230 0.0 0.0 0.00 0.00 0.00 76 1009.5
20260505083813 13 230 0.0 0.0 0.00 0.00 0.00 77 1009.5
20260505083328 13 230 0.0 0.0 0.00 0.00 0.00 76 1009.5
20260505082811 13 230 0.0 0.0 0.00 0.00 0.00 76 1009.5
20260505082327 13 230 0.0 0.0 0.00 0.00 0.00 76 1009.5
20260505081812 13 230 0.0 0.0 0.00 0.00 0.00 76 1009.5
20260505080811 13 230 0.0 0.0 0.00 0.00 0.00 77 1009.6
20260505080317 13 230 0.0 0.0 0.00 0.00 0.00 77 1009.5
20260505075814 13 230 0.0 0.0 0.00 0.00 0.00 77 1009.6
20260505075329 13 230 0.0 0.0 0.00 0.00 0.00 76 1009.5
20260505074809 13 230 0.0 0.0 0.00 0.00 0.00 76 1009.5
20260505074319 13 230 0.0 0.0 0.00 0.00 0.00 76 1009.5
20260505073336 13 230 0.0 0.0 0.00 0.00 0.00 76 1009.5
20260505072816 13 230 0.0 0.0 0.00 0.00 0.00 76 1009.5
20260505072319 13 230 0.0 0.0 0.00 0.00 0.00 76 1009.5
20260505071829 13 230 0.0 0.0 0.00 0.00 0.00 76 1009.4
20260505071316 12 230 0.0 0.0 0.00 0.00 0.00 76 1009.4
20260505070819 13 230 0.0 0.0 0.00 0.00 0.00 76 1009.4
20260505070332 13 230 0.0 0.0 0.00 0.00 0.00 75 1009.3
20260505065835 13 230 0.0 0.0 0.00 0.00 0.00 75 1009.4
20260505065312 13 230 0.0 0.0 0.00 0.00 0.00 74 1009.5
20260505064819 13 230 0.0 0.0 0.00 0.00 0.00 74 1009.4
20260505064313 13 230 0.0 0.0 0.00 0.00 0.00 74 1009.5
20260505062817 13 230 0.0 0.0 0.00 0.00 0.00 74 1009.5
20260505062326 13 230 0.0 0.0 0.00 0.00 0.00 73 1009.5
20260505061319 13 230 0.0 0.0 0.00 0.00 0.00 73 1009.7
20260505060823 13 230 0.0 0.0 0.00 0.00 0.00 73 1009.5
20260505060315 13 230 0.0 0.0 0.00 0.00 0.00 72 1009.6
20260505055822 13 230 0.0 0.0 0.00 0.00 0.00 72 1009.6
20260505055333 13 230 0.0 0.0 0.00 0.00 0.00 72 1009.6
20260505054824 13 230 0.0 0.0 0.00 0.00 0.00 72 1009.6
20260505053825 13 230 0.0 0.0 0.00 0.00 0.00 70 1009.7
20260505053320 13 230 0.0 0.0 0.00 0.00 0.00 69 1009.7
20260505052827 13 230 0.0 0.0 0.00 0.00 0.00 69 1009.8
20260505051814 14 230 0.0 0.0 0.00 0.00 0.00 67 1009.7
20260505051308 14 230 0.0 0.0 0.00 0.00 0.00 66 1009.7
20260505050319 15 230 0.0 0.0 0.00 0.00 0.00 65 1009.9
20260505041318 16 230 0.0 0.0 0.00 0.00 0.00 60 1010.0
20260505040825 16 226 0.0 1.6 0.00 0.00 0.00 60 1009.9
20260505040307 16 216 0.0 1.6 0.00 0.00 0.00 59 1009.9
20260505035323 16 227 0.0 1.6 0.00 0.00 0.00 58 1009.9
20260505033819 16 197 0.0 3.2 0.00 0.00 0.00 57 1009.9
20260505033329 16 197 0.0 3.2 0.00 0.00 0.00 57 1009.9
20260505032829 16 224 0.0 1.6 0.00 0.00 0.00 56 1009.9
20260505031310 16 227 0.0 0.0 0.00 0.00 0.00 54 1010.0
20260505030327 17 209 0.0 0.0 0.00 0.00 0.00 53 1009.9
20260505025816 17 213 0.0 0.0 0.00 0.00 0.00 53 1009.9
20260505025324 17 226 0.0 0.0 0.00 0.00 0.00 52 1009.9
20260505024815 17 234 0.0 3.2 0.00 0.00 0.00 52 1010.0
20260505024332 17 235 0.0 4.8 0.00 0.00 0.00 51 1010.0
20260505023819 17 188 0.0 3.2 0.00 0.00 0.00 50 1010.0
20260505023327 17 196 0.0 3.2 0.00 0.00 0.00 50 1010.0
20260505022830 17 196 0.0 3.2 0.00 0.00 0.00 49 1010.1
20260505021832 17 212 0.0 1.6 0.00 0.00 0.00 48 1010.1
20260505021311 17 212 0.0 0.0 0.00 0.00 0.00 48 1010.1
20260505020319 17 204 0.0 4.8 0.00 0.00 0.00 47 1010.1
20260505015327 18 200 0.0 3.2 0.00 0.00 0.00 46 1010.1
20260505014326 18 202 0.0 3.2 0.00 0.00 0.00 46 1009.9
20260505013829 18 218 0.0 3.2 0.00 0.00 0.00 46 1009.8
20260505013312 18 218 0.0 3.2 0.00 0.00 0.00 46 1009.8
20260505012818 18 232 0.0 0.0 0.00 0.00 0.00 45 1009.8
20260505012309 18 232 0.0 0.0 0.00 0.00 0.00 45 1009.8
20260505011819 18 232 0.0 0.0 0.00 0.00 0.00 45 1009.7
20260505011333 18 232 0.0 0.0 0.00 0.00 0.00 45 1009.6
20260505010817 18 232 0.0 0.0 0.00 0.00 0.00 45 1009.5
20260505005813 18 232 0.0 0.0 0.00 0.00 0.00 44 1009.4
20260505005323 19 232 0.0 0.0 0.00 0.00 0.00 43 1009.4
20260505004807 19 232 0.0 0.0 0.00 0.00 0.00 43 1009.3
20260505004323 19 232 0.0 0.0 0.00 0.00 0.00 43 1009.2
20260505003835 19 232 0.0 0.0 0.00 0.00 0.00 42 1009.1
20260505002811 20 232 0.0 0.0 0.00 0.00 0.00 42 1009.2
20260505002316 20 232 0.0 6.4 0.00 0.00 0.00 41 1009.1
20260505001823 20 232 0.0 6.4 0.00 0.00 0.00 41 1009.1
20260505001320 20 209 0.0 3.2 0.00 0.00 0.00 40 1009.0
20260505000827 20 269 1.6 3.2 0.00 0.00 0.00 40 1009.0
20260505000334 20 234 0.0 0.0 0.00 0.00 0.00 40 1008.9
20260504235813 20 213 0.0 1.6 0.00 0.00 0.00 40 1008.8
20260504235330 20 270 0.0 3.2 0.00 0.00 0.00 40 1008.7
20260504233817 21 248 0.0 8.0 0.00 0.00 0.00 38 1008.5
20260504233308 21 232 0.0 8.0 0.00 0.00 0.00 38 1008.5
20260504232822 21 203 0.0 0.0 0.00 0.00 0.00 38 1008.4
20260504231831 21 278 0.0 6.4 0.00 0.00 0.00 38 1008.3
20260504231320 22 243 0.0 6.4 0.00 0.00 0.00 37 1008.2
20260504230830 22 343 0.0 8.0 0.00 0.00 0.00 38 1008.2
20260504225827 22 335 6.4 14.5 0.00 0.00 0.00 36 1008.0
20260504224825 22 213 0.0 0.0 0.00 0.00 0.00 36 1008.0
20260504223814 22 231 1.6 8.0 0.00 0.00 0.00 35 1008.0
20260504223308 22 338 0.0 6.4 0.00 0.00 0.00 36 1008.2
20260504222324 22 296 1.6 16.1 0.00 0.00 0.00 35 1008.1
20260504221808 22 245 1.6 16.1 0.00 0.00 0.00 35 1008.2
20260504221320 23 251 0.0 16.1 0.00 0.00 0.00 36 1008.2
20260504220834 22 221 1.6 16.1 0.00 0.00 0.00 35 1008.2
20260504220320 23 273 1.6 9.7 0.00 0.00 0.00 35 1008.2
20260504215322 23 196 1.6 6.4 0.00 0.00 0.00 35 1008.4
20260504214322 23 313 1.6 11.3 0.00 0.00 0.00 34 1008.4
20260504213320 22 313 1.6 8.0 0.00 0.00 0.00 35 1008.6
20260504212808 22 302 0.0 14.5 0.00 0.00 0.00 36 1008.7
20260504212318 22 301 0.0 20.9 0.00 0.00 0.00 36 1008.7
20260504211813 22 284 0.0 9.7 0.00 0.00 0.00 35 1008.7
20260504211325 22 342 1.6 11.3 0.00 0.00 0.00 36 1008.7
20260504210837 22 346 0.0 12.9 0.00 0.00 0.00 35 1008.7
20260504210319 22 304 0.0 19.3 0.00 0.00 0.00 34 1008.7
20260504205312 23 248 3.2 14.5 0.00 0.00 0.00 34 1008.5
20260504204813 23 344 3.2 6.4 0.00 0.00 0.00 34 1008.5
20260504204321 23 298 3.2 19.3 0.00 0.00 0.00 34 1008.5
20260504203828 22 243 0.0 6.4 0.00 0.00 0.00 33 1008.5
20260504203317 23 32 0.0 17.7 0.00 0.00 0.00 34 1008.5
20260504202819 22 302 1.6 17.7 0.00 0.00 0.00 34 1008.6
20260504202330 23 290 1.6 12.9 0.00 0.00 0.00 35 1008.7
20260504201815 22 286 3.2 12.9 0.00 0.00 0.00 34 1008.7
20260504200315 22 238 8.0 14.5 0.00 0.00 0.00 33 1008.7
20260504195829 23 211 0.0 11.3 0.00 0.00 0.00 35 1008.8